Regional Weather Roundup
Issued by NWS Charleston, SC

Current Version | Previous Version | Graphics & Text | Print | Product List | Glossary On
Versions: 1 2 3 4 5 6 7 8 9 10 11 12 13 14 15 16 17 18 19 20 21 22 23 24 25 26 27 28 29 30 31 32 33 34 35 36 37 38 39 40 41 42 43 44 45 46 47 48 49 50
000 ASUS42 KCHS 240027 RWRCHS REGIONAL WEATHER ROUNDUP NATIONAL WEATHER SERVICE CHARLESTON SC 800 PM EDT MON MAY 23 2016 NOTE: "FAIR" INDICATES FEW OR NO CLOUDS BELOW 12,000 FEET WITH NO SIGNIFICANT WEATHER AND/OR OBSTRUCTIONS TO VISIBILITY. NOT ALL STATIONS ARE QUALITY CONTROLLED. USE DATA WITH CAUTION... ESPECIALLY DEWPOINT OBSERVATIONS. SCZ027-030-031-034>040-042>050-240100- ...SOUTHEAST SOUTH CAROLINA... CITY SKY/WX TMP DP RH WIND PRES REMARKS N CHARLESTON PTCLDY 73 51 46 N9 29.98R 6HR MIN TEMP: 73; 6HR MAX TEMP: 81; WATERFRONT PRK N/A 75 57 53 N8 29.95R MOUNT PLEASANT FAIR 72 54 53 CALM 29.99R JOHNS ISLAND FAIR 72 55 56 CALM 29.99R PINOPOLIS N/A 77 55 47 N7 29.91R MONCKS CORNER FAIR 68 48 49 N3 29.99R SUMMERVILLE FAIR 70 55 60 CALM 30.00R BEAUFORT MCAS PTCLDY 73 55 53 NE6 29.97R 6HR MIN TEMP: 73; 6HR MAX TEMP: 82; BEAUFORT ARPT FAIR 73 57 56 CALM 29.98R HILTON HEAD IS CLEAR 72 61 68 CALM 29.98R WALTERBORO CLEAR 73 52 46 NE6 30.00R ALLENDALE FAIR 73 54 49 N5 29.98R ...SOUTHERN MIDLANDS AND PEE DEE... CITY SKY/WX TMP DP RH WIND PRES REMARKS GEORGETOWN FAIR 68 54 60 CALM 30.00R KINGSTREE FAIR 66 54 63 CALM 30.00R ORANGEBURG CLEAR 73 52 47 NE8 29.99R 6HR MIN TEMP: 73; 6HR MAX TEMP: 79; BARNWELL FAIR 75 55 50 CALM 30.00R AIKEN FAIR 70 50 49 NE7 30.03R MANNING FAIR 64 54 68 CALM 30.00R COLUMBIA PTCLDY 75 49 39 N5 29.99R 6HR MIN TEMP: 75; 6HR MAX TEMP: 80; SUMTER CLEAR 70 52 52 N5 29.98R 6HR MIN TEMP: 70; 6HR MAX TEMP: 74; FLORENCE CLEAR 69 51 52 N8 30.00R 6HR MIN TEMP: 69; 6HR MAX TEMP: 74; MYRTLE BEACH PTCLDY 70 52 52 NW7 29.99 N MYRTLE BEACH CLEAR 67 55 65 CALM 29.98R 6HR MIN TEMP: 67; 6HR MAX TEMP: 73; $$ GAZ063-065-086>088-099>101-113>116-118-119-134>141-150-240100- ...SOUTHEAST GEORGIA... CITY SKY/WX TMP DP RH WIND PRES REMARKS SAVANNAH ARPT PTCLDY 77 49 37 NE8 29.97R 6HR MIN TEMP: 77; 6HR MAX TEMP: 83; HUNTER AAF CLEAR 75 60 58 SE3 29.95R 6HR MIN TEMP: 75; 6HR MAX TEMP: 84; FORT STEWART CLEAR 75 60 57 CALM 29.94R 6HR MIN TEMP: 75; 6HR MAX TEMP: 84; STATESBORO CLEAR 74 58 57 CALM 29.97R SYLVANIA CLEAR 74 61 63 NE3 29.99R CLAXTON FAIR 73 64 74 CALM 29.97R ...CSRA...CENTRAL AND FAR SOUTHEAST GEORGIA... CITY SKY/WX TMP DP RH WIND PRES REMARKS THOMSON CLEAR 74 55 51 E5 30.02R AUGUSTA-BUSH CLEAR 73 54 51 E6 29.96R 6HR MIN TEMP: 73; 6HR MAX TEMP: 81; AUGUSTA-DANIEL CLEAR 78 50 37 NE6 29.98R SWAINSBORO FAIR 75 54 46 CALM 29.98R VIDALIA CLEAR 75 54 46 CALM 29.97R EASTMAN FAIR 73 60 63 CALM 29.99R HAZLEHURST FAIR 75 55 49 CALM 29.96R ALMA CLEAR 75 59 57 CALM 29.96R 6HR MIN TEMP: 75; 6HR MAX TEMP: 84; WAYCROSS PTCLDY 77 57 49 NW3 29.96R JESUP FAIR 72 54 53 CALM 29.97R BAXLEY FAIR 77 55 47 CALM 29.96R BRUNSWICK CLEAR 75 63 64 CALM 29.98R SAINT SIMONS CLEAR 76 56 49 SE6 29.96R 6HR MIN TEMP: 76; 6HR MAX TEMP: 81; $$ SCZ027-028-034-036>038-045-046-048>050-GAZ119-141-240100- ...LAKE AND SUPPLEMENTAL COASTAL OBSERVATIONS... STATION/POSITION TIME TEMP WIND PRES WAVE SWELL AIR SEA DIR/SP/G HT/PER HT/PER/DIR (UTC) (F) (DEG/KT/KT) (MB) (FT/S) (FT/S/D) WINYAH BAY 2300 71 350/ 5 1014.0S LAKE MURRAY 2300 74 40/ 2/ 4 1014.9R ACE BASIN NERRS 2300 78 360/ 2 1014.0S FORT PULASKI 0000 74 76 150/ 3/ 4 1015.1R SAPELO ISLAND 0000 76 130/ 3 1014.0S $$ ANZ835-935-AMZ111-154-330-350-352-354-370-450-454-472-240100- ...C-MAN AND BUOY OBSERVATIONS... STATION/POSITION TIME TEMP WIND PRES WAVE SWELL AIR SEA DIR/SP/G HT/PER HT/PER/DIR (UTC) (F) (DEG/KT/KT) (MB) (FT/S) (FT/S/D) BUOY 41004 2250 71 76 30/ 8/ 10 1014.3 2/ 9 2/ 9 BUOY 41008 NOT AVBL FOLLY BEACH CMAN 0000 73 350/ 6/ 8 1015.3R CAPERS NEARSHORE 2308 74 75 10/ 10/ 14 1014.5R FRIPP NEARSHORE 0008 75 77 200/ 6/ 8 1014.4R STATION/POSITION TIME TEMP WIND PRES WAVE SWELL AIR SEA DIR/SP/G HT/PER HT/PER/DIR (UTC) (F) (DEG/KT/KT) (MB) (FT/S) (FT/S/D) 5E ST. MARYS GA 2321 78 N/A 2/ 8 FRYING PAN BUOY 0000 70 77 310/ 16/ 19 1014.4R BUOY 41025 2350 61 65 350/ 16/ 17 1012.9R 4/ 9 3/100/ 9 CAPE LOOKOUT NC 0000 63 340/ 14/ 16 1013.9R BUOY 41002 2250 74 77 290/ 10/ 14 1013.5 4/ 7 5/ 10/ 7 BUOY 41010 2320 78 79 360/ 6/ 8 1014.3R ST AUGUSTINE FL 0000 77 80 100/ 11/ 12 1015.3R $$

USA.gov is the U.S. government's official web portal to all federal, state and local government web resources and services.